• In Kazakhstan
  • List of Countries
  • For 7 days
  • Water Temperature
  • Weather Map
  • News
  • Weather Widgets
  • user-avatar
    Login

    Hourly Weather Qala i Naw

    Today, 18 February, Tuesday

    Time Temperature Precipitation Wind Pressure Humidity
    00:00 +7°C° 0 mm 1 mps 686 mmHg 63%
    01:00 +7°C° 0 mm 1 mps 686 mmHg 63%
    02:00 +6°C° 0 mm 1 mps 686 mmHg 65%
    03:00 +6°C° 0 mm 1 mps 686 mmHg 67%
    04:00 +5°C° 0 mm 1 mps 686 mmHg 69%
    05:00 +4°C° 0 mm 2 mps 687 mmHg 71%
    06:00 +3°C° 0 mm 2 mps 687 mmHg 72%
    07:00 +3°C° 0 mm 2 mps 688 mmHg 74%
    08:00 +3°C° 0 mm 2 mps 688 mmHg 73%
    09:00 +3°C° 0 mm 2 mps 688 mmHg 72%
    10:00 +3°C° 0 mm 2 mps 688 mmHg 71%
    11:00 +3°C° 0.2 mm 2 mps 688 mmHg 76%
    12:00 +3°C° 0.2 mm 2 mps 687 mmHg 80%
    13:00 +3°C° 0.2 mm 2 mps 687 mmHg 85%
    14:00 +3°C° 0.1 mm 2 mps 687 mmHg 87%
    15:00 +2°C° 0.1 mm 3 mps 687 mmHg 89%
    16:00 +2°C° 0.1 mm 3 mps 687 mmHg 91%
    17:00 +2°C° 0.2 mm 2 mps 688 mmHg 93%
    18:00 +2°C° 0.2 mm 2 mps 688 mmHg 94%
    19:00 +2°C° 0.2 mm 2 mps 689 mmHg 95%
    20:00 +2°C° 0.3 mm 2 mps 689 mmHg 95%
    21:00 +2°C° 0.3 mm 2 mps 689 mmHg 96%
    22:00 +1°C° 0.3 mm 3 mps 689 mmHg 96%
    23:00 +1°C° 0.3 mm 2 mps 689 mmHg 96%

    Tomorrow, 19 February, Wednesday

    Time Temperature Precipitation Wind Pressure Humidity
    00:00 +1°C° 0.3 mm 2 mps 689 mmHg 96%
    01:00 +1°C° 0.3 mm 2 mps 688 mmHg 95%
    02:00 +1°C° 0.1 mm 2 mps 688 mmHg 95%
    03:00 -1°C° 0.1 mm 2 mps 688 mmHg 94%
    04:00 -1°C° 0.1 mm 2 mps 688 mmHg 94%
    05:00 +1°C° 0 mm 1 mps 688 mmHg 93%
    06:00 +1°C° 0 mm 1 mps 688 mmHg 92%
    07:00 +1°C° 0 mm 1 mps 688 mmHg 92%
    08:00 +2°C° 0 mm 1 mps 688 mmHg 89%
    09:00 +1°C° 0 mm 2 mps 687 mmHg 87%
    10:00 +1°C° 0 mm 2 mps 687 mmHg 84%
    11:00 +3°C° 0 mm 1 mps 686 mmHg 80%
    12:00 +4°C° 0 mm 1 mps 685 mmHg 76%
    13:00 +4°C° 0 mm 1 mps 685 mmHg 72%
    14:00 +5°C° 0 mm 1 mps 684 mmHg 70%
    15:00 +5°C° 0 mm 1 mps 684 mmHg 68%
    16:00 +5°C° 0 mm 1 mps 683 mmHg 66%
    17:00 +5°C° 0 mm 1 mps 684 mmHg 69%
    18:00 +4°C° 0 mm 1 mps 684 mmHg 72%
    19:00 +4°C° 0 mm 1 mps 684 mmHg 74%
    20:00 +4°C° 0 mm 1 mps 684 mmHg 73%
    21:00 +4°C° 0 mm 1 mps 684 mmHg 72%
    22:00 +4°C° 0 mm 1 mps 684 mmHg 71%
    23:00 +4°C° 0 mm 1 mps 684 mmHg 69%

    Day after tomorrow, 20 February, Thursday

    Time Temperature Precipitation Wind Pressure Humidity
    00:00 +3°C° 0 mm 1 mps 683 mmHg 68%
    01:00 +3°C° 0 mm 1 mps 683 mmHg 66%
    02:00 +4°C° 0 mm 1 mps 683 mmHg 61%
    03:00 +4°C° 0 mm 1 mps 682 mmHg 56%
    04:00 +4°C° 0 mm 1 mps 682 mmHg 50%
    05:00 +3°C° 0 mm 2 mps 682 mmHg 46%
    06:00 +4°C° 0 mm 2 mps 682 mmHg 42%
    07:00 +4°C° 0 mm 2 mps 682 mmHg 37%
    08:00 +7°C° 0 mm 2 mps 682 mmHg 34%
    09:00 +9°C° 0 mm 2 mps 682 mmHg 30%
    10:00 +13°C° 0 mm 2 mps 682 mmHg 27%
    11:00 +14°C° 0 mm 2 mps 682 mmHg 26%
    12:00 +15°C° 0 mm 1 mps 681 mmHg 24%
    13:00 +16°C° 0 mm 1 mps 681 mmHg 23%
    14:00 +16°C° 0 mm 1 mps 681 mmHg 26%
    15:00 +16°C° 0 mm 1 mps 680 mmHg 29%
    16:00 +16°C° 0 mm 1 mps 680 mmHg 32%
    17:00 +15°C° 0 mm 1 mps 680 mmHg 34%
    18:00 +13°C° 0 mm 2 mps 680 mmHg 35%
    19:00 +10°C° 0 mm 2 mps 680 mmHg 37%
    20:00 +10°C° 0 mm 2 mps 680 mmHg 36%
    21:00 +10°C° 0 mm 2 mps 680 mmHg 35%
    22:00 +9°C° 0 mm 2 mps 679 mmHg 34%
    23:00 +9°C° 0 mm 2 mps 679 mmHg 33%

    21 February, Friday

    Time Temperature Precipitation Wind Pressure Humidity
    00:00 +9°C° 0 mm 3 mps 679 mmHg 31%
    01:00 +9°C° 0 mm 3 mps 679 mmHg 30%
    02:00 +9°C° 0 mm 3 mps 679 mmHg 30%
    03:00 +9°C° 0 mm 3 mps 678 mmHg 30%
    04:00 +10°C° 0 mm 4 mps 678 mmHg 30%
    05:00 +9°C° 0 mm 5 mps 678 mmHg 33%
    06:00 +9°C° 0 mm 6 mps 679 mmHg 36%
    07:00 +10°C° 0 mm 7 mps 679 mmHg 39%
    08:00 +11°C° 0 mm 6 mps 679 mmHg 40%
    09:00 +13°C° 0 mm 4 mps 680 mmHg 40%
    10:00 +14°C° 0 mm 3 mps 681 mmHg 40%
    17:00 +14°C° 0 mm 4 mps 680 mmHg 51%
    18:00 +13°C° 0 mm 4 mps 681 mmHg 53%
    19:00 +12°C° 0 mm 3 mps 681 mmHg 54%
    20:00 +11°C° 0 mm 3 mps 681 mmHg 58%
    21:00 +10°C° 0 mm 2 mps 682 mmHg 61%
    22:00 +10°C° 0 mm 2 mps 682 mmHg 64%
    23:00 +9°C° 0 mm 2 mps 682 mmHg 70%

    22 February, Saturday

    Time Temperature Precipitation Wind Pressure Humidity
    00:00 +9°C° 0 mm 1 mps 682 mmHg 76%
    01:00 +8°C° 0 mm 1 mps 682 mmHg 81%
    02:00 +8°C° 0 mm 1 mps 682 mmHg 79%
    03:00 +8°C° 0 mm 1 mps 682 mmHg 77%
    04:00 +8°C° 0 mm 1 mps 682 mmHg 75%
    05:00 +8°C° 0 mm 1 mps 682 mmHg 72%
    06:00 +8°C° 0 mm 1 mps 683 mmHg 70%
    07:00 +8°C° 0 mm 1 mps 683 mmHg 67%
    08:00 +10°C° 0 mm 1 mps 684 mmHg 58%
    09:00 +13°C° 0 mm 2 mps 684 mmHg 49%
    10:00 +15°C° 0 mm 2 mps 685 mmHg 41%
    11:00 +16°C° 0 mm 2 mps 685 mmHg 37%
    12:00 +18°C° 0 mm 2 mps 684 mmHg 33%
    13:00 +19°C° 0 mm 2 mps 684 mmHg 29%
    14:00 +19°C° 0 mm 2 mps 684 mmHg 32%
    15:00 +18°C° 0 mm 2 mps 684 mmHg 36%
    16:00 +18°C° 0 mm 2 mps 684 mmHg 39%
    17:00 +17°C° 0 mm 2 mps 683 mmHg 46%
    18:00 +15°C° 0 mm 1 mps 683 mmHg 54%
    19:00 +13°C° 0 mm 1 mps 683 mmHg 61%
    20:00 +13°C° 0 mm 1 mps 683 mmHg 59%
    21:00 +13°C° 0 mm 1 mps 683 mmHg 56%
    22:00 +13°C° 0 mm 2 mps 683 mmHg 54%
    23:00 +12°C° 0 mm 2 mps 683 mmHg 53%

    23 February, Sunday

    Time Temperature Precipitation Wind Pressure Humidity
    00:00 +12°C° 0 mm 2 mps 682 mmHg 51%
    01:00 +10°C° 0 mm 2 mps 682 mmHg 50%
    02:00 +10°C° 0 mm 2 mps 682 mmHg 50%
    03:00 +10°C° 0 mm 2 mps 681 mmHg 49%
    04:00 +9°C° 0 mm 2 mps 681 mmHg 49%
    05:00 +9°C° 0 mm 2 mps 681 mmHg 48%
    06:00 +9°C° 0 mm 2 mps 681 mmHg 47%
    07:00 +10°C° 0 mm 3 mps 682 mmHg 46%
    08:00 +13°C° 0 mm 2 mps 682 mmHg 43%
    09:00 +15°C° 0 mm 2 mps 682 mmHg 40%
    10:00 +17°C° 0 mm 2 mps 683 mmHg 36%
    11:00 +18°C° 0 mm 3 mps 682 mmHg 35%
    12:00 +19°C° 0 mm 3 mps 682 mmHg 34%
    13:00 +20°C° 0 mm 3 mps 682 mmHg 33%
    14:00 +20°C° 0 mm 4 mps 681 mmHg 35%
    15:00 +20°C° 0 mm 4 mps 681 mmHg 36%
    16:00 +20°C° 0 mm 4 mps 680 mmHg 38%
    17:00 +19°C° 0 mm 4 mps 680 mmHg 42%
    18:00 +17°C° 0 mm 4 mps 681 mmHg 47%
    19:00 +15°C° 0 mm 4 mps 681 mmHg 51%
    20:00 +16°C° 0 mm 3 mps 681 mmHg 54%
    21:00 +14°C° 0 mm 3 mps 681 mmHg 56%
    22:00 +15°C° 0 mm 2 mps 681 mmHg 59%
    23:00 +13°C° 0 mm 2 mps 681 mmHg 66%
    Show more